Dades meteomassalio
Diari Summary for Diciembre 25, 2017 Units:  Metric    English   Both
« Previous Day
Next Day »
Diari Semanal Mensual Anual Personalitzat
  Maxima: Minima: Mijana:
Temperatura: -17.8 °C -19.3 °C -18.1 °C
Rosada: -17.8 °C -19.9 °C -18.6 °C
Humitat: Humidity % 93 % 94 %
Velocitat del vent: 0 km/h 0 km/h 0.8 km/h
Racha vent: 0 km/h - -
Vent:- - West
Pressio: 0 hPa 34703.1 hPa -
Pluja: 7.62 mm    
Historical Graphs
 
 
Tabular Data for Diciembre 25, 2017
Time Temperature Dew Point Pressure Wind Wind Speed Wind Gust Humidity Rainfall Rate (Hourly) solar Conditions
-17.8 °C -17.8 °C 0 hPa Calm     Humidity % 0 mm SolarRadiationWatts/m^2 W/m2 Conditions
00:02 -18.4 °C -18.9 °C 35014.6 hPa Calm     93 % 0 mm 0.0 W/m2 RA
00:06 -18.1 °C -18.7 °C 35014.6 hPa Calm     93 % 0 mm 0.0 W/m2 CLR
00:07 -18.1 °C -18.7 °C 35014.6 hPa Calm     93 % 0 mm 0.0 W/m2 CLR
00:12 -18.1 °C -18.7 °C 35014.6 hPa Calm     93 % 0 mm 0.0 W/m2 CLR
00:13 -18.1 °C -18.7 °C 35014.6 hPa Calm     93 % 0 mm 0.0 W/m2 CLR
00:18 -18.4 °C -18.9 °C 35014.6 hPa Calm     93 % 0 mm 0.0 W/m2 CLR
00:21 -18.4 °C -18.9 °C 35001.1 hPa Calm     93 % 0 mm 0.0 W/m2 CLR
00:26 -18.4 °C -18.9 °C 35014.6 hPa Calm     93 % 0 mm 0.0 W/m2 CLR
00:27 -18.4 °C -18.9 °C 35014.6 hPa Calm     93 % 0 mm 0.0 W/m2 CLR
00:30 -18.4 °C -18.9 °C 35001.1 hPa Calm     93 % 0 mm 0.0 W/m2 CLR
00:32 -18.4 °C -18.9 °C 35001.1 hPa Calm     93 % 0 mm 0.0 W/m2 CLR
00:37 -18.4 °C -18.9 °C 35001.1 hPa Calm     93 % 0 mm 0.0 W/m2 CLR
00:42 -18.4 °C -18.9 °C 35001.1 hPa Calm     93 % 0 mm 0.0 W/m2 CLR
00:43 -18.4 °C -18.9 °C 35001.1 hPa Calm     93 % 0 mm 0.0 W/m2 CLR
00:46 -18.4 °C -18.9 °C 35001.1 hPa Calm     93 % 0 mm 0.0 W/m2 CLR
00:48 -18.4 °C -18.9 °C 35001.1 hPa Calm     93 % 0 mm 0.0 W/m2 CLR
00:53 -18.4 °C -18.9 °C 35001.1 hPa Calm     93 % 0 mm 0.0 W/m2 CLR
00:54 -18.4 °C -18.9 °C 35001.1 hPa Calm     93 % 0 mm 0.0 W/m2 CLR
00:55 -18.4 °C -18.9 °C 35001.1 hPa Calm     93 % 0 mm 0.0 W/m2 CLR
01:00 -18.4 °C -18.9 °C 35001.1 hPa Calm     93 % 0 mm 0.0 W/m2 CLR
01:01 -18.4 °C -18.9 °C 35001.1 hPa Calm     93 % 0 mm 0.0 W/m2 CLR
01:06 -18.4 °C -18.9 °C 35001.1 hPa Calm     93 % 0 mm 0.0 W/m2 CLR
01:08 -18.4 °C -18.9 °C 35001.1 hPa Calm     93 % 0 mm 0.0 W/m2 CLR
01:12 -18.4 °C -18.9 °C 35001.1 hPa Calm     93 % 0 mm 0.0 W/m2 CLR
01:17 -18.7 °C -19.3 °C 35001.1 hPa Calm     93 % 0 mm 0.0 W/m2 CLR
01:22 -18.7 °C -19.3 °C 35001.1 hPa Calm     93 % 0 mm 0.0 W/m2 CLR
01:25 -18.7 °C -19.3 °C 34990.9 hPa Calm     93 % 0 mm 0.0 W/m2 CLR
01:28 -18.7 °C -19.3 °C 34990.9 hPa Calm     93 % 0 mm 0.0 W/m2 CLR
01:33 -18.7 °C -19.3 °C 34990.9 hPa Calm     93 % 0 mm 0.0 W/m2 CLR
01:35 -18.7 °C -19.3 °C 34990.9 hPa Calm     93 % 0 mm 0.0 W/m2 CLR
01:40 -18.7 °C -19.3 °C 34990.9 hPa Calm     93 % 0 mm 0.0 W/m2 CLR
01:45 -18.7 °C -19.3 °C 34990.9 hPa Calm     93 % 0 mm 0.0 W/m2 CLR
01:46 -18.7 °C -19.3 °C 34990.9 hPa Calm     93 % 0 mm 0.0 W/m2 CLR
01:51 -18.7 °C -19.3 °C 34990.9 hPa Calm     93 % 0 mm 0.0 W/m2 CLR
01:53 -18.7 °C -19.3 °C 34980.8 hPa Calm     93 % 0 mm 0.0 W/m2 CLR
01:57 -18.7 °C -19.3 °C 34980.8 hPa Calm     93 % 0 mm 0.0 W/m2 CLR
02:02 -18.7 °C -19.3 °C 34990.9 hPa Calm     93 % 0 mm 0.0 W/m2 CLR
02:03 -18.7 °C -19.3 °C 34980.8 hPa Calm     93 % 0 mm 0.0 W/m2 CLR
02:06 -18.7 °C -19.3 °C 34980.8 hPa Calm     93 % 0 mm 0.0 W/m2 CLR
02:09 -18.7 °C -19.3 °C 34980.8 hPa Calm     93 % 0 mm 0.0 W/m2 CLR
02:13 -18.7 °C -19.3 °C 34980.8 hPa Calm     93 % 0 mm 0.0 W/m2 CLR
02:14 -18.7 °C -19.3 °C 34980.8 hPa Calm     93 % 0 mm 0.0 W/m2 CLR
02:18 -18.7 °C -19.3 °C 34980.8 hPa West 6 km/h 6 km/h 93 % 0 mm 0.0 W/m2 CLR
02:19 -18.7 °C -19.3 °C 34980.8 hPa West 6 km/h   93 % 0 mm 0.0 W/m2 CLR
02:24 -18.7 °C -19.3 °C 34980.8 hPa West 3.1 km/h 3.1 km/h 93 % 0 mm 0.0 W/m2 CLR
02:29 -19 °C -19.6 °C 34980.8 hPa Calm     93 % 0 mm 0.0 W/m2 CLR
02:31 -19 °C -19.6 °C 34980.8 hPa Calm     93 % 0 mm 0.0 W/m2 CLR
02:36 -19 °C -19.6 °C 34980.8 hPa West 9 km/h 9 km/h 93 % 0 mm 0.0 W/m2 CLR
02:41 -19 °C -19.6 °C 34980.8 hPa Calm     93 % 0 mm 0.0 W/m2 CLR
02:42 -19 °C -19.6 °C 34980.8 hPa Calm     93 % 0 mm 0.0 W/m2 CLR
02:47 -19 °C -19.6 °C 34980.8 hPa Calm     93 % 0 mm 0.0 W/m2 CLR
02:52 -19 °C -19.6 °C 34980.8 hPa Calm     93 % 0 mm 0.0 W/m2 CLR
02:53 -19 °C -19.6 °C 34980.8 hPa Calm     93 % 0 mm 0.0 W/m2 CLR
02:58 -19 °C -19.6 °C 34980.8 hPa WSW 9 km/h 9 km/h 93 % 0 mm 0.0 W/m2 CLR
03:00 -19 °C -19.6 °C 34967.2 hPa WSW 6 km/h 6 km/h 93 % 0 mm 0.0 W/m2 CLR
03:05 -19 °C -19.6 °C 34967.2 hPa WSW 9 km/h 9 km/h 93 % 0 mm 0.0 W/m2 CLR
03:08 -19 °C -19.6 °C 34967.2 hPa WSW 9 km/h 9 km/h 93 % 0 mm 0.0 W/m2 CLR
03:11 -19 °C -19.6 °C 34967.2 hPa West 10.3 km/h 10.3 km/h 93 % 0 mm 0.0 W/m2 CLR
03:14 -19 °C -19.6 °C 34967.2 hPa West 9 km/h 9 km/h 93 % 0 mm 0.0 W/m2 CLR
03:19 -19 °C -19.6 °C 34967.2 hPa West 11.9 km/h 11.9 km/h 93 % 0 mm 0.0 W/m2 CLR
03:20 -19 °C -19.6 °C 34967.2 hPa West 11.9 km/h 11.9 km/h 93 % 0 mm 0.0 W/m2 CLR
03:22 -19 °C -19.6 °C 34967.2 hPa West 9 km/h 9 km/h 93 % 0 mm 0.0 W/m2 CLR
03:26 -19 °C -19.6 °C 34967.2 hPa West 11.9 km/h 11.9 km/h 93 % 0 mm 0.0 W/m2 CLR
03:29 -19 °C -19.6 °C 34967.2 hPa West 9 km/h 9 km/h 93 % 0 mm 0.0 W/m2 CLR
03:32 -19 °C -19.6 °C 34967.2 hPa West 9 km/h 9 km/h 93 % 0 mm 0.0 W/m2 CLR
03:35 -19 °C -19.6 °C 34967.2 hPa West 6 km/h 6 km/h 93 % 0 mm 0.0 W/m2 CLR
03:38 -19 °C -19.6 °C 34967.2 hPa West 7.7 km/h 7.7 km/h 93 % 0 mm 0.0 W/m2 CLR
03:43 -19 °C -19.6 °C 34967.2 hPa Calm     93 % 0 mm 0.0 W/m2 CLR
03:44 -19 °C -19.6 °C 34967.2 hPa Calm     93 % 0 mm 0.0 W/m2 CLR
03:49 -19 °C -19.5 °C 34967.2 hPa Calm     94 % 0 mm 0.0 W/m2 CLR
03:54 -19 °C -19.5 °C 34957.1 hPa Calm     94 % 0 mm 0.0 W/m2 CLR
03:58 -19 °C -19.5 °C 34957.1 hPa Calm     94 % 0 mm 0.0 W/m2 CLR
03:59 -19 °C -19.5 °C 34957.1 hPa Calm     94 % 0 mm 0.0 W/m2 CLR
04:04 -19 °C -19.5 °C 34957.1 hPa Calm     94 % 0 mm 0.0 W/m2 CLR
04:05 -19 °C -19.5 °C 34957.1 hPa Calm     94 % 0 mm 0.0 W/m2 CLR
04:08 -19 °C -19.5 °C 34957.1 hPa Calm     94 % 0 mm 0.0 W/m2 CLR
04:14 -19 °C -19.5 °C 34957.1 hPa Calm     94 % 0 mm 0.0 W/m2 CLR
04:15 -19 °C -19.5 °C 34957.1 hPa Calm     94 % 0 mm 0.0 W/m2 CLR
04:17 -19 °C -19.5 °C 34957.1 hPa Calm     94 % 0 mm 0.0 W/m2 CLR
04:21 -19 °C -19.5 °C 34957.1 hPa Calm     94 % 0 mm 0.0 W/m2 CLR
04:24 -19 °C -19.5 °C 34957.1 hPa Calm     94 % 0 mm 0.0 W/m2 CLR
04:27 -19 °C -19.5 °C 34957.1 hPa Calm     94 % 0 mm 0.0 W/m2 CLR
04:29 -19 °C -19.5 °C 34946.9 hPa Calm     94 % 0 mm 0.0 W/m2 CLR
04:34 -19 °C -19.5 °C 34957.1 hPa Calm     94 % 0 mm 0.0 W/m2 CLR
04:35 -19 °C -19.5 °C 34957.1 hPa Calm     94 % 0 mm 0.0 W/m2 CLR
04:40 -19 °C -19.6 °C 34957.1 hPa Calm     93 % 0 mm 0.0 W/m2 CLR
04:42 -19 °C -19.6 °C 34957.1 hPa Calm     93 % 0 mm 0.0 W/m2 CLR
04:47 -19.3 °C -19.9 °C 34946.9 hPa Calm     93 % 0 mm 0.0 W/m2 CLR
04:48 -19.3 °C -19.9 °C 34946.9 hPa Calm     93 % 0 mm 0.0 W/m2 CLR
04:53 -19 °C -19.6 °C 34946.9 hPa Calm     93 % 0 mm 0.0 W/m2 CLR
04:58 -19 °C -19.6 °C 34946.9 hPa Calm     93 % 0 mm 0.0 W/m2 CLR
04:59 -19 °C -19.6 °C 34946.9 hPa Calm     93 % 0 mm 0.0 W/m2 CLR
05:04 -19 °C -19.6 °C 34946.9 hPa Calm     93 % 0 mm 0.0 W/m2 CLR
05:06 -19 °C -19.6 °C 34946.9 hPa Calm     93 % 0 mm 0.0 W/m2 CLR
05:10 -19 °C -19.6 °C 34946.9 hPa West 9 km/h 9 km/h 93 % 0 mm 0.0 W/m2 CLR
05:12 -19 °C -19.6 °C 34946.9 hPa WSW 9 km/h 9 km/h 93 % 0 mm 0.0 W/m2 CLR
05:17 -19 °C -19.6 °C 34946.9 hPa West 9 km/h 9 km/h 93 % 0 mm 0.0 W/m2 CLR
05:22 -19 °C -19.6 °C 34933.4 hPa WSW 11.9 km/h 11.9 km/h 93 % 0 mm 0.0 W/m2 CLR
05:27 -19 °C -19.6 °C 34933.4 hPa Calm     93 % 0 mm 0.0 W/m2 CLR
05:28 -19 °C -19.6 °C 34933.4 hPa Calm     93 % 0 mm 0.0 W/m2 CLR
05:29 -19 °C -19.6 °C 34933.4 hPa Calm     93 % 0 mm 0.0 W/m2 CLR
05:34 -19.3 °C -19.9 °C 34933.4 hPa WSW 9 km/h 9 km/h 93 % 0 mm 0.0 W/m2 CLR
05:36 -19.3 °C -19.9 °C 34933.4 hPa WSW 9 km/h 9 km/h 93 % 0 mm 0.0 W/m2 CLR
05:38 -19.3 °C -19.8 °C 34933.4 hPa WSW 10.3 km/h 10.3 km/h 94 % 0 mm 0.0 W/m2 CLR
05:41 -19.3 °C -19.8 °C 34933.4 hPa WSW 11.9 km/h 11.9 km/h 94 % 0 mm 0.0 W/m2 CLR
05:44 -19.3 °C -19.8 °C 34933.4 hPa WSW 9 km/h   94 % 0 mm 0.0 W/m2 CLR
05:46 -19.3 °C -19.8 °C 34933.4 hPa Calm     94 % 0 mm 0.0 W/m2 CLR
05:51 -19.3 °C -19.8 °C 34933.4 hPa Calm     94 % 0 mm 0.0 W/m2 CLR
05:56 -19 °C -19.5 °C 34933.4 hPa Calm     94 % 0 mm 0.0 W/m2 CLR
06:01 -19 °C -19.5 °C 34933.4 hPa Calm     94 % 0 mm 0.0 W/m2 CLR
06:06 -19 °C -19.5 °C 34923.2 hPa Calm     94 % 0 mm 0.0 W/m2 CLR
06:07 -19 °C -19.5 °C 34923.2 hPa Calm     94 % 0 mm 0.0 W/m2 CLR
06:12 -19 °C -19.5 °C 34923.2 hPa Calm     94 % 0 mm 0.0 W/m2 CLR
06:17 -19 °C -19.5 °C 34933.4 hPa Calm     94 % 0 mm 0.0 W/m2 CLR
06:18 -19 °C -19.5 °C 34933.4 hPa Calm     94 % 0 mm 0.0 W/m2 CLR
06:20 -19 °C -19.5 °C 34923.2 hPa Calm     94 % 0 mm 0.0 W/m2 CLR
06:25 -19 °C -19.5 °C 34923.2 hPa Calm     94 % 0 mm 0.0 W/m2 CLR
06:27 -19 °C -19.5 °C 34923.2 hPa Calm     94 % 0 mm 0.0 W/m2 CLR
06:32 -19 °C -19.5 °C 34923.2 hPa Calm     94 % 0 mm 0.0 W/m2 CLR
06:34 -19 °C -19.5 °C 34923.2 hPa West 9 km/h 9 km/h 94 % 0 mm 0.0 W/m2 CLR
06:37 -19 °C -19.5 °C 34923.2 hPa Calm     94 % 0 mm 0.0 W/m2 CLR
06:41 -19 °C -19.5 °C 34923.2 hPa Calm     94 % 0 mm 0.0 W/m2 CLR
06:44 -19 °C -19.5 °C 34923.2 hPa Calm     94 % 0 mm 0.0 W/m2 CLR
06:46 -19 °C -19.5 °C 34923.2 hPa Calm     94 % 0 mm 0.0 W/m2 CLR
06:49 -19 °C -19.5 °C 34923.2 hPa Calm     94 % 0 mm 0.0 W/m2 CLR
06:54 -19 °C -19.5 °C 34923.2 hPa Calm     94 % 0 mm 0.0 W/m2 CLR
06:55 -19 °C -19.5 °C 34923.2 hPa Calm     94 % 0 mm 0.0 W/m2 CLR
07:00 -19 °C -19.5 °C 34923.2 hPa Calm     94 % 0 mm 0.0 W/m2 CLR
07:02 -19 °C -19.5 °C 34923.2 hPa Calm     94 % 0 mm 0.0 W/m2 CLR
07:05 -19 °C -19.5 °C 34923.2 hPa Calm     94 % 0 mm 0.0 W/m2 CLR
07:10 -19 °C -19.5 °C 34923.2 hPa Calm     94 % 0 mm 0.0 W/m2 CLR
07:12 -19 °C -19.5 °C 34923.2 hPa Calm     94 % 0 mm 0.0 W/m2 CLR
07:17 -19 °C -19.5 °C 34923.2 hPa Calm     94 % 0 mm 0.0 W/m2 CLR
07:18 -19 °C -19.5 °C 34923.2 hPa Calm     94 % 0 mm 0.0 W/m2 CLR
07:23 -19 °C -19.5 °C 34923.2 hPa Calm     94 % 0 mm 0.0 W/m2 CLR
07:24 -19 °C -19.5 °C 34923.2 hPa Calm     94 % 0 mm 0.0 W/m2 CLR
07:29 -19 °C -19.5 °C 34923.2 hPa Calm     94 % 0 mm 0.0 W/m2 CLR
07:30 -19 °C -19.5 °C 34923.2 hPa Calm     94 % 0 mm 0.0 W/m2 CLR
07:35 -19 °C -19.5 °C 34923.2 hPa Calm     94 % 0 mm 0.0 W/m2 CLR
07:36 -19 °C -19.5 °C 34923.2 hPa Calm     94 % 0 mm 0.0 W/m2 CLR
07:38 -19 °C -19.5 °C 34923.2 hPa Calm     94 % 0 mm 0.0 W/m2 CLR
07:41 -19 °C -19.5 °C 34923.2 hPa Calm     94 % 0 mm 0.0 W/m2 CLR
07:44 -19 °C -19.5 °C 34923.2 hPa West 3.1 km/h 3.1 km/h 94 % 0 mm 0.0 W/m2 CLR
07:47 -19 °C -19.5 °C 34923.2 hPa Calm     94 % 0 mm 0.0 W/m2 CLR
07:50 -19 °C -19.5 °C 34923.2 hPa Calm     94 % 0 mm 0.0 W/m2 CLR
07:52 -19 °C -19.5 °C 34923.2 hPa Calm     94 % 0 mm 0.0 W/m2 CLR
07:56 -19 °C -19.5 °C 34923.2 hPa Calm     94 % 0 mm 0.0 W/m2 CLR
07:57 -18.7 °C -19.2 °C 34923.2 hPa Calm     94 % 0 mm 0.0 W/m2 CLR
08:02 -18.7 °C -19.2 °C 34923.2 hPa Calm     94 % 0 mm 0.0 W/m2 CLR
08:03 -18.7 °C -19.2 °C 34923.2 hPa Calm     94 % 0 mm 0.0 W/m2 CLR
08:05 -19 °C -19.5 °C 34923.2 hPa Calm     94 % 0 mm 0.0 W/m2 CLR
08:09 -19 °C -19.5 °C 34923.2 hPa Calm     94 % 0 mm 0.0 W/m2 CLR
08:14 -19 °C -19.5 °C 34923.2 hPa Calm     94 % 0 mm 0.0 W/m2 OVC
08:15 -19 °C -19.5 °C 34909.7 hPa Calm     94 % 0 mm 0.0 W/m2 OVC
08:20 -19 °C -19.5 °C 34909.7 hPa Calm     94 % 0 mm 0.0 W/m2 OVC
08:25 -19 °C -19.5 °C 34923.2 hPa Calm     94 % 0 mm 0.0 W/m2 OVC
08:28 -19 °C -19.5 °C 34923.2 hPa Calm     94 % 0 mm 0.0 W/m2 OVC
08:33 -19 °C -19.5 °C 34923.2 hPa Calm     94 % 0 mm 5.0 W/m2 OVC
08:38 -19 °C -19.5 °C 34909.7 hPa Calm     94 % 0 mm 7.0 W/m2 BKN
08:39 -19 °C -19.5 °C 34909.7 hPa Calm     94 % 0 mm 7.0 W/m2 BKN
08:40 -19 °C -19.5 °C 34909.7 hPa Calm     94 % 0 mm 9.0 W/m2 BKN
08:45 -19 °C -19.5 °C 34909.7 hPa Calm     94 % 0 mm 11.0 W/m2 BKN
08:50 -19 °C -19.5 °C 34909.7 hPa Calm     94 % 0 mm 14.0 W/m2 BKN
08:52 -19 °C -19.5 °C 34909.7 hPa Calm     94 % 0 mm 14.0 W/m2 BKN
08:56 -19 °C -19.5 °C 34909.7 hPa Calm     94 % 0 mm 18.0 W/m2 BKN
08:59 -19 °C -19.5 °C 34909.7 hPa Calm     94 % 0 mm 19.0 W/m2 BKN
09:01 -19 °C -19.5 °C 34909.7 hPa Calm     94 % 0 mm 21.0 W/m2 BKN
09:06 -19 °C -19.5 °C 34909.7 hPa Calm     94 % 0 mm 25.0 W/m2 BKN
09:11 -19 °C -19.5 °C 34909.7 hPa Calm     94 % 0 mm 26.0 W/m2 BKN
09:13 -19 °C -19.5 °C 34909.7 hPa Calm     94 % 0 mm 26.0 W/m2 BKN
09:17 -19 °C -19.5 °C 34909.7 hPa Calm     94 % 0 mm 33.0 W/m2 BKN
09:22 -19 °C -19.5 °C 34909.7 hPa Calm     94 % 0 mm 35.0 W/m2 BKN
09:23 -19 °C -19.5 °C 34909.7 hPa Calm     94 % 0 mm 35.0 W/m2 BKN
09:25 -19 °C -19.5 °C 34909.7 hPa Calm     94 % 0 mm 37.0 W/m2 BKN
09:30 -19 °C -19.6 °C 34909.7 hPa Calm     93 % 0 mm 40.0 W/m2 BKN
09:32 -19 °C -19.5 °C 34909.7 hPa Calm     94 % 0 mm 42.0 W/m2 BKN
09:35 -19 °C -19.5 °C 34909.7 hPa Calm     94 % 0 mm 47.0 W/m2 BKN
09:40 -19 °C -19.5 °C 34909.7 hPa Calm     94 % 0 mm 53.0 W/m2 SCT
09:41 -19 °C -19.5 °C 34909.7 hPa Calm     94 % 0 mm 53.0 W/m2 SCT
09:45 -18.7 °C -19.2 °C 34909.7 hPa Calm     94 % 0 mm 54.0 W/m2 SCT
09:46 -19 °C -19.5 °C 34909.7 hPa Calm     94 % 0 mm 56.0 W/m2 SCT
09:51 -18.7 °C -19.2 °C 34909.7 hPa Calm     94 % 0 mm 62.0 W/m2 SCT
09:56 -18.7 °C -19.2 °C 34909.7 hPa Calm     94 % 0 mm 63.0 W/m2 SCT
09:58 -18.7 °C -19.2 °C 34909.7 hPa Calm     94 % 0 mm 70.0 W/m2 SCT
10:03 -18.7 °C -19.2 °C 34909.7 hPa Calm     94 % 0 mm 76.0 W/m2 FEW
10:05 -18.7 °C -19.2 °C 34909.7 hPa Calm     94 % 0 mm 77.0 W/m2 FEW
10:10 -18.7 °C -19.2 °C 34909.7 hPa Calm     94 % 0 mm 72.0 W/m2 FEW
10:15 -18.7 °C -19.2 °C 34909.7 hPa Calm     94 % 0 mm 79.0 W/m2 FEW
10:17 -18.7 °C -19.2 °C 34909.7 hPa Calm     94 % 0 mm 83.0 W/m2 FEW
10:19 -18.4 °C -18.8 °C 34909.7 hPa Calm     94 % 0 mm 90.0 W/m2 FEW
10:23 -18.4 °C -18.8 °C 34909.7 hPa Calm     94 % 0 mm 88.0 W/m2 FEW
10:26 -18.4 °C -18.8 °C 34909.7 hPa Calm     94 % 0 mm 84.0 W/m2 CLR
10:29 -18.4 °C -18.8 °C 34909.7 hPa Calm     94 % 0 mm 86.0 W/m2 CLR
10:34 -18.4 °C -18.8 °C 34909.7 hPa Calm     94 % 0 mm 91.0 W/m2 FEW
10:35 -18.4 °C -18.8 °C 34909.7 hPa Calm     94 % 0 mm 88.0 W/m2 CLR
10:40 -18.4 °C -18.8 °C 34923.2 hPa Calm     94 % 0 mm 102.0 W/m2 CLR
10:43 -18.1 °C -18.6 °C 34909.7 hPa Calm     94 % 0 mm 111.0 W/m2 CLR
10:46 -18.4 °C -18.8 °C 34909.7 hPa Calm     94 % 0 mm 111.0 W/m2 CLR
10:51 -18.1 °C -18.6 °C 34909.7 hPa Calm     94 % 0 mm 109.0 W/m2 CLR
10:56 -18.4 °C -18.8 °C 34923.2 hPa Calm     94 % 0 mm 128.0 W/m2 CLR
10:58 -18.1 °C -18.6 °C 34923.2 hPa Calm     94 % 0 mm 146.0 W/m2 CLR
11:01 -18.1 °C -18.6 °C 34909.7 hPa Calm     94 % 0 mm 141.0 W/m2 CLR
11:06 -18.1 °C -18.6 °C 34909.7 hPa Calm     94 % 7.62 mm 141.0 W/m2 RA
11:09 -18.1 °C -18.6 °C 34909.7 hPa Calm     94 % 7.62 mm 134.0 W/m2 RA
11:10 -18.1 °C -18.6 °C 34909.7 hPa Calm     94 % 7.62 mm 135.0 W/m2 RA
11:14 -18.1 °C -18.6 °C 34909.7 hPa Calm     94 % 7.62 mm 137.0 W/m2 CLR
11:16 -18.1 °C -18.6 °C 34909.7 hPa Calm     94 % 7.62 mm 137.0 W/m2 CLR
11:20 -18.1 °C -18.6 °C 34909.7 hPa Calm     94 % 7.62 mm 135.0 W/m2 CLR
11:22 -18.1 °C -18.6 °C 34909.7 hPa Calm     94 % 7.62 mm 132.0 W/m2 CLR
11:25 -18.1 °C -18.6 °C 34909.7 hPa Calm     94 % 7.62 mm 137.0 W/m2 CLR
11:29 -18.1 °C -18.6 °C 34909.7 hPa Calm     94 % 7.62 mm 132.0 W/m2 CLR
11:30 -17.8 °C -18.2 °C 34909.7 hPa Calm     94 % 7.62 mm 132.0 W/m2 CLR
11:35 -17.8 °C -18.2 °C 34909.7 hPa Calm     94 % 7.62 mm 141.0 W/m2 CLR
11:36 -17.8 °C -18.2 °C 34909.7 hPa Calm     94 % 7.62 mm 141.0 W/m2 CLR
11:37 -17.8 °C -18.2 °C 34899.5 hPa Calm     94 % 7.62 mm 141.0 W/m2 CLR
11:41 -17.8 °C -18.2 °C 34899.5 hPa Calm     94 % 7.62 mm 139.0 W/m2 CLR
11:46 -17.8 °C -18.2 °C 34899.5 hPa Calm     94 % 7.62 mm 137.0 W/m2 CLR
12:01 -17.8 °C -18.2 °C 34889.3 hPa Calm     94 % 7.62 mm 134.0 W/m2 CLR
12:02 -17.8 °C -18.2 °C 34889.3 hPa Calm     94 % 7.62 mm 134.0 W/m2 CLR
12:06 -17.8 °C -18.2 °C 34889.3 hPa Calm     94 % 0 mm 151.0 W/m2 CLR
12:07 -17.8 °C -18.2 °C 34889.3 hPa Calm     94 % 0 mm 151.0 W/m2 CLR
12:12 -17.8 °C -18.2 °C 34889.3 hPa Calm     94 % 0 mm 142.0 W/m2 CLR
12:14 -17.8 °C -18.2 °C 34889.3 hPa Calm     94 % 0 mm 142.0 W/m2 CLR
12:15 -17.8 °C -18.2 °C 34889.3 hPa Calm     94 % 0 mm 142.0 W/m2 CLR
12:20 -17.8 °C -18.2 °C 34875.8 hPa Calm     94 % 0 mm 148.0 W/m2 CLR
12:21 -17.8 °C -18.2 °C 34875.8 hPa Calm     94 % 0 mm 149.0 W/m2 CLR
12:25 -17.8 °C -18.2 °C 34875.8 hPa Calm     94 % 0 mm 149.0 W/m2 CLR
12:30 -17.8 °C -18.2 °C 34875.8 hPa Calm     94 % 0 mm 142.0 W/m2 CLR
12:32 -17.4 °C -17.9 °C 34865.6 hPa Calm     94 % 0 mm 144.0 W/m2 CLR
12:37 -17.4 °C -17.9 °C 34865.6 hPa Calm     94 % 0 mm 158.0 W/m2 CLR
12:42 -17.4 °C -17.9 °C 34865.6 hPa Calm     94 % 0 mm 171.0 W/m2 CLR
12:44 -17.4 °C -17.9 °C 34865.6 hPa Calm     94 % 0 mm 165.0 W/m2 CLR
12:48 -17.2 °C -17.6 °C 34852.1 hPa Calm     94 % 0 mm 181.0 W/m2 CLR
12:50 -17.4 °C -17.9 °C 34852.1 hPa Calm     94 % 0 mm 185.0 W/m2 CLR
12:54 -17.2 °C -17.6 °C 34852.1 hPa Calm     94 % 0 mm 185.0 W/m2 CLR
12:55 -17.2 °C -17.6 °C 34841.9 hPa Calm     94 % 0 mm 181.0 W/m2 CLR
13:00 -17.4 °C -17.9 °C 34841.9 hPa Calm     94 % 0 mm 188.0 W/m2 CLR
13:03 -17.4 °C -17.9 °C 34841.9 hPa Calm     94 % 0 mm 181.0 W/m2 CLR
13:08 -17.2 °C -17.6 °C 34841.9 hPa Calm     94 % 0 mm 176.0 W/m2 CLR
13:11 -17.2 °C -17.6 °C 34841.9 hPa Calm     94 % 0 mm 197.0 W/m2 CLR
13:13 -17.2 °C -17.6 °C 34841.9 hPa Calm     94 % 0 mm 188.0 W/m2 CLR
13:18 -17.2 °C -17.6 °C 34841.9 hPa Calm     94 % 0 mm 183.0 W/m2 CLR
13:23 -17.2 °C -17.6 °C 34841.9 hPa Calm     94 % 0 mm 174.0 W/m2 CLR
13:24 -17.2 °C -17.6 °C 34831.8 hPa Calm     94 % 0 mm 174.0 W/m2 CLR
13:25 -17.2 °C -17.6 °C 34831.8 hPa Calm     94 % 0 mm 186.0 W/m2 CLR
13:30 -17.2 °C -17.6 °C 34831.8 hPa Calm     94 % 0 mm 174.0 W/m2 CLR
13:33 -16.8 °C -17.3 °C 34831.8 hPa Calm     94 % 0 mm 179.0 W/m2 CLR
13:36 -16.8 °C -17.3 °C 34831.8 hPa Calm     94 % 0 mm 172.0 W/m2 CLR
13:41 -17.2 °C -17.6 °C 34818.2 hPa Calm     94 % 0 mm 186.0 W/m2 CLR
13:42 -17.2 °C -17.6 °C 34818.2 hPa Calm     94 % 0 mm 188.0 W/m2 CLR
13:46 -16.8 °C -17.3 °C 34818.2 hPa Calm     94 % 0 mm 162.0 W/m2 CLR
13:47 -16.8 °C -17.3 °C 34818.2 hPa Calm     94 % 0 mm 156.0 W/m2 CLR
13:52 -16.8 °C -17.3 °C 34818.2 hPa Calm     94 % 0 mm 192.0 W/m2 CLR
13:57 -16.8 °C -17.3 °C 34808.1 hPa Calm     94 % 0 mm 185.0 W/m2 CLR
14:02 -16.6 °C -17.1 °C 34808.1 hPa Calm     94 % 0 mm 160.0 W/m2 CLR
14:03 -16.6 °C -17.1 °C 34808.1 hPa Calm     94 % 0 mm 151.0 W/m2 CLR
14:08 -16.6 °C -17.1 °C 34808.1 hPa Calm     94 % 0 mm 171.0 W/m2 CLR
14:11 -16.6 °C -17.1 °C 34797.9 hPa Calm     94 % 0 mm 156.0 W/m2 CLR
14:16 -16.6 °C -17.1 °C 34797.9 hPa Calm     94 % 0 mm 134.0 W/m2 CLR
14:18 -16.6 °C -17.1 °C 34797.9 hPa Calm     94 % 0 mm 127.0 W/m2 CLR
14:23 -16.6 °C -17.1 °C 34797.9 hPa Calm     94 % 0 mm 139.0 W/m2 CLR
14:24 -16.6 °C -17.1 °C 34797.9 hPa Calm     94 % 0 mm 135.0 W/m2 CLR
14:29 -16.6 °C -17.1 °C 34797.9 hPa Calm     94 % 0 mm 123.0 W/m2 CLR
14:34 -16.6 °C -17.1 °C 34784.4 hPa East 6 km/h   94 % 0 mm 132.0 W/m2 CLR
14:36 -16.6 °C -17.1 °C 34784.4 hPa Calm     94 % 0 mm 137.0 W/m2 CLR
14:37 -16.8 °C -17.3 °C 34784.4 hPa Calm     94 % 0 mm 134.0 W/m2 CLR
14:42 -16.6 °C -17.1 °C 34784.4 hPa Calm     94 % 0 mm 118.0 W/m2 CLR
14:44 -16.6 °C -17.1 °C 34784.4 hPa Calm     94 % 0 mm 121.0 W/m2 CLR
14:45 -16.8 °C -17.3 °C 34784.4 hPa Calm     94 % 0 mm 121.0 W/m2 CLR
14:49 -16.8 °C -17.3 °C 34784.4 hPa Calm     94 % 0 mm 111.0 W/m2 CLR
14:51 -16.6 °C -17.1 °C 34784.4 hPa Calm     94 % 0 mm 107.0 W/m2 CLR
14:55 -16.6 °C -17.1 °C 34784.4 hPa ENE 6 km/h   94 % 0 mm 97.0 W/m2 CLR
15:00 -16.6 °C -17.1 °C 34784.4 hPa Calm     94 % 0 mm 100.0 W/m2 CLR
15:02 -16.6 °C -17.1 °C 34784.4 hPa Calm     94 % 0 mm 93.0 W/m2 CLR
15:07 -16.6 °C -17.1 °C 34784.4 hPa Calm     94 % 0 mm 95.0 W/m2 CLR
15:08 -16.6 °C -17.1 °C 34774.2 hPa Calm     94 % 0 mm 91.0 W/m2 CLR
15:12 -16.6 °C -17.1 °C 34774.2 hPa Calm     94 % 0 mm 86.0 W/m2 CLR
15:17 -16.6 °C -17.1 °C 34774.2 hPa Calm     94 % 0 mm 77.0 W/m2 CLR
15:22 -16.8 °C -17.3 °C 34774.2 hPa Calm     94 % 0 mm 86.0 W/m2 FEW
15:24 -16.6 °C -17.1 °C 34774.2 hPa Calm     94 % 0 mm 83.0 W/m2 FEW
15:25 -16.6 °C -17.1 °C 34774.2 hPa Calm     94 % 0 mm 79.0 W/m2 FEW
15:30 -16.6 °C -17.1 °C 34774.2 hPa Calm     94 % 0 mm 70.0 W/m2 FEW
15:35 -16.6 °C -17.1 °C 34774.2 hPa Calm     94 % 0 mm 70.0 W/m2 FEW
15:40 -16.6 °C -17.1 °C 34774.2 hPa Calm     94 % 0 mm 65.0 W/m2 FEW
15:41 -16.6 °C -17.1 °C 34774.2 hPa Calm     94 % 0 mm 65.0 W/m2 FEW
15:46 -16.6 °C -17.1 °C 34774.2 hPa Calm     94 % 0 mm 63.0 W/m2 FEW
15:47 -16.6 °C -17.1 °C 34774.2 hPa Calm     94 % 0 mm 62.0 W/m2 FEW
15:51 -16.6 °C -17.1 °C 34774.2 hPa Calm     94 % 0 mm 56.0 W/m2 SCT
15:56 -16.6 °C -17.1 °C 34760.7 hPa Calm     94 % 0 mm 51.0 W/m2 SCT
15:57 -16.6 °C -17.1 °C 34760.7 hPa Calm     94 % 0 mm 51.0 W/m2 SCT
16:01 -16.6 °C -17.1 °C 34760.7 hPa Calm     94 % 0 mm 51.0 W/m2 SCT
16:02 -16.6 °C -17.1 °C 34760.7 hPa Calm     94 % 0 mm 54.0 W/m2 SCT
16:07 -16.6 °C -17.1 °C 34760.7 hPa Calm     94 % 0 mm 49.0 W/m2 SCT
16:09 -16.6 °C -17.1 °C 34760.7 hPa Calm     94 % 0 mm 49.0 W/m2 SCT
16:11 -16.6 °C -17.1 °C 34760.7 hPa Calm     94 % 0 mm 49.0 W/m2 SCT
16:15 -16.6 °C -17.1 °C 34774.2 hPa Calm     94 % 0 mm 39.0 W/m2 SCT
16:20 -16.6 °C -17.1 °C 34760.7 hPa Calm     94 % 0 mm 39.0 W/m2 BKN
16:21 -16.6 °C -17.1 °C 34760.7 hPa Calm     94 % 0 mm 37.0 W/m2 BKN
16:23 -16.6 °C -17.1 °C 34760.7 hPa Calm     94 % 0 mm 39.0 W/m2 BKN
16:27 -16.6 °C -17.1 °C 34760.7 hPa Calm     94 % 0 mm 35.0 W/m2 BKN
16:32 -16.6 °C -17.1 °C 34760.7 hPa Calm     94 % 0 mm 28.0 W/m2 BKN
16:37 -16.6 °C -17.1 °C 34760.7 hPa Calm     94 % 0 mm 26.0 W/m2 BKN
16:40 -16.6 °C -17.1 °C 34760.7 hPa Calm     94 % 0 mm 25.0 W/m2 BKN
16:45 -16.6 °C -17.1 °C 34760.7 hPa Calm     94 % 0 mm 19.0 W/m2 BKN
16:47 -16.6 °C -17.1 °C 34760.7 hPa Calm     94 % 0 mm 18.0 W/m2 BKN
16:52 -16.6 °C -17.1 °C 34760.7 hPa Calm     94 % 0 mm 19.0 W/m2 BKN
16:53 -16.6 °C -17.1 °C 34760.7 hPa Calm     94 % 0 mm 19.0 W/m2 BKN
16:58 -16.6 °C -17.1 °C 34760.7 hPa Calm     94 % 0 mm 16.0 W/m2 BKN
16:59 -16.6 °C -17.1 °C 34760.7 hPa Calm     94 % 0 mm 16.0 W/m2 BKN
17:04 -16.6 °C -17.1 °C 34760.7 hPa Calm     94 % 0 mm 12.0 W/m2 BKN
17:05 -16.6 °C -17.1 °C 34760.7 hPa Calm     94 % 0 mm 11.0 W/m2 BKN
17:06 -16.6 °C -17.1 °C 34760.7 hPa Calm     94 % 0 mm 11.0 W/m2 BKN
17:10 -16.6 °C -17.1 °C 34750.5 hPa Calm     94 % 0 mm 7.0 W/m2 BKN
17:12 -16.6 °C -17.1 °C 34750.5 hPa Calm     94 % 0 mm 7.0 W/m2 BKN
17:17 -16.6 °C -17.1 °C 34750.5 hPa Calm     94 % 0 mm 7.0 W/m2 BKN
17:18 -16.6 °C -17.1 °C 34750.5 hPa Calm     94 % 0 mm 7.0 W/m2 BKN
17:23 -16.6 °C -17.1 °C 34750.5 hPa Calm     94 % 0 mm 5.0 W/m2 OVC
17:25 -16.6 °C -17.1 °C 34750.5 hPa Calm     94 % 0 mm 5.0 W/m2 OVC
17:29 -16.6 °C -17.1 °C 34760.7 hPa Calm     94 % 0 mm 0.0 W/m2 OVC
17:32 -16.6 °C -17.1 °C 34760.7 hPa Calm     94 % 0 mm 0.0 W/m2 OVC
17:37 -16.6 °C -17.1 °C 34760.7 hPa Calm     94 % 0 mm 0.0 W/m2 OVC
17:44 -16.8 °C -17.3 °C 34750.5 hPa Calm     94 % 0 mm 0.0 W/m2 OVC
17:45 -16.8 °C -17.3 °C 34750.5 hPa Calm     94 % 0 mm 0.0 W/m2 OVC
17:47 -16.8 °C -17.3 °C 34750.5 hPa Calm     94 % 0 mm 0.0 W/m2 CLR
17:51 -16.8 °C -17.3 °C 34750.5 hPa Calm     94 % 0 mm 0.0 W/m2 CLR
17:52 -16.8 °C -17.3 °C 34750.5 hPa Calm     94 % 0 mm 0.0 W/m2 CLR
17:57 -16.8 °C -17.3 °C 34750.5 hPa Calm     94 % 0 mm 0.0 W/m2 CLR
18:02 -16.8 °C -17.3 °C 34750.5 hPa Calm     94 % 0 mm 0.0 W/m2 CLR
18:07 -16.8 °C -17.3 °C 34750.5 hPa Calm     94 % 0 mm 0.0 W/m2 CLR
18:09 -16.8 °C -17.3 °C 34750.5 hPa Calm     94 % 0 mm 0.0 W/m2 CLR
18:10 -16.8 °C -17.3 °C 34750.5 hPa Calm     94 % 0 mm 0.0 W/m2 CLR
18:16 -16.8 °C -17.3 °C 34760.7 hPa Calm     94 % 0 mm 0.0 W/m2 CLR
18:17 -16.8 °C -17.3 °C 34760.7 hPa Calm     94 % 0 mm 0.0 W/m2 CLR
18:19 -16.8 °C -17.3 °C 34760.7 hPa Calm     94 % 0 mm 0.0 W/m2 CLR
18:24 -16.8 °C -17.3 °C 34760.7 hPa Calm     94 % 0 mm 0.0 W/m2 CLR
18:26 -16.8 °C -17.3 °C 34760.7 hPa Calm     94 % 0 mm 0.0 W/m2 CLR
18:31 -16.8 °C -17.3 °C 34774.2 hPa NNW 11.9 km/h 11.9 km/h 94 % 0 mm 0.0 W/m2 CLR
18:32 -16.8 °C -17.3 °C 34760.7 hPa NNW 9 km/h 9 km/h 94 % 0 mm 0.0 W/m2 CLR
18:37 -16.8 °C -17.3 °C 34760.7 hPa Calm     94 % 0 mm 0.0 W/m2 CLR
18:39 -16.8 °C -17.3 °C 34760.7 hPa Calm     94 % 0 mm 0.0 W/m2 CLR
18:44 -16.8 °C -17.3 °C 34760.7 hPa Calm     94 % 0 mm 0.0 W/m2 CLR
18:49 -16.8 °C -17.3 °C 34760.7 hPa NW 9 km/h 9 km/h 94 % 0 mm 0.0 W/m2 CLR
18:54 -16.8 °C -17.3 °C 34760.7 hPa NW 9 km/h 9 km/h 94 % 0 mm 0.0 W/m2 CLR
18:59 -16.8 °C -17.3 °C 34760.7 hPa NW 6 km/h 6 km/h 94 % 0 mm 0.0 W/m2 CLR
19:01 -16.8 °C -17.3 °C 34774.2 hPa NW 6 km/h 6 km/h 94 % 0 mm 0.0 W/m2 CLR
19:05 -16.8 °C -17.3 °C 34774.2 hPa NW 6 km/h   94 % 0 mm 0.0 W/m2 CLR
19:10 -17.2 °C -17.6 °C 34774.2 hPa Calm     94 % 0 mm 0.0 W/m2 CLR
19:12 -17.2 °C -17.6 °C 34774.2 hPa Calm     94 % 0 mm 0.0 W/m2 CLR
19:16 -17.2 °C -17.6 °C 34774.2 hPa West 17.9 km/h 17.9 km/h 94 % 0 mm 0.0 W/m2 CLR
19:19 -17.2 °C -17.6 °C 34774.2 hPa West 9 km/h 9 km/h 94 % 0 mm 0.0 W/m2 CLR
19:22 -17.2 °C -17.6 °C 34774.2 hPa Calm     94 % 0 mm 0.0 W/m2 CLR
19:27 -17.2 °C -17.6 °C 34774.2 hPa NW 11.9 km/h 11.9 km/h 94 % 0 mm 0.0 W/m2 CLR
19:29 -17.2 °C -17.6 °C 34774.2 hPa WNW 9 km/h 9 km/h 94 % 0 mm 0.0 W/m2 CLR
19:34 -17.2 °C -17.6 °C 34774.2 hPa West 10.3 km/h 10.3 km/h 94 % 0 mm 0.0 W/m2 CLR
19:39 -17.2 °C -17.6 °C 34774.2 hPa Calm     94 % 0 mm 0.0 W/m2 CLR
19:40 -17.2 °C -17.6 °C 34774.2 hPa Calm     94 % 0 mm 0.0 W/m2 CLR
19:42 -17.2 °C -17.6 °C 34774.2 hPa Calm     94 % 0 mm 0.0 W/m2 CLR
19:46 -17.2 °C -17.6 °C 34774.2 hPa Calm     94 % 0 mm 0.0 W/m2 CLR
19:49 -17.2 °C -17.6 °C 34774.2 hPa Calm     94 % 0 mm 0.0 W/m2 CLR
19:51 -17.2 °C -17.6 °C 34774.2 hPa Calm     94 % 0 mm 0.0 W/m2 CLR
19:56 -17.2 °C -17.6 °C 34760.7 hPa Calm     94 % 0 mm 0.0 W/m2 CLR
19:57 -17.2 °C -17.6 °C 34760.7 hPa Calm     94 % 0 mm 0.0 W/m2 CLR
20:02 -17.2 °C -17.6 °C 34760.7 hPa Calm     94 % 0 mm 0.0 W/m2 CLR
20:07 -17.2 °C -17.6 °C 34760.7 hPa Calm     94 % 0 mm 0.0 W/m2 CLR
20:08 -17.2 °C -17.6 °C 34760.7 hPa Calm     94 % 0 mm 0.0 W/m2 CLR
20:13 -17.2 °C -17.6 °C 34760.7 hPa Calm     94 % 0 mm 0.0 W/m2 CLR
20:14 -17.2 °C -17.6 °C 34760.7 hPa Calm     94 % 0 mm 0.0 W/m2 CLR
20:19 -17.2 °C -17.6 °C 34760.7 hPa Calm     94 % 0 mm 0.0 W/m2 CLR
20:22 -17.2 °C -17.6 °C 34760.7 hPa Calm     94 % 0 mm 0.0 W/m2 CLR
20:25 -17.2 °C -17.6 °C 34760.7 hPa Calm     94 % 0 mm 0.0 W/m2 CLR
20:30 -17.2 °C -17.6 °C 34760.7 hPa Calm     94 % 0 mm 0.0 W/m2 CLR
20:31 -17.2 °C -17.6 °C 34760.7 hPa Calm     94 % 0 mm 0.0 W/m2 CLR
20:36 -17.2 °C -17.6 °C 34750.5 hPa Calm     94 % 0 mm 0.0 W/m2 CLR
20:41 -17.4 °C -17.9 °C 34760.7 hPa Calm     94 % 0 mm 0.0 W/m2 CLR
20:44 -17.4 °C -17.9 °C 34760.7 hPa Calm     94 % 0 mm 0.0 W/m2 CLR
20:45 -17.4 °C -17.9 °C 34760.7 hPa Calm     94 % 0 mm 0.0 W/m2 CLR
20:50 -17.4 °C -17.9 °C 34760.7 hPa Calm     94 % 0 mm 0.0 W/m2 CLR
20:51 -17.4 °C -17.9 °C 34760.7 hPa Calm     94 % 0 mm 0.0 W/m2 CLR
20:56 -17.4 °C -17.9 °C 34760.7 hPa Calm     94 % 0 mm 0.0 W/m2 CLR
20:58 -17.4 °C -17.9 °C 34750.5 hPa Calm     94 % 0 mm 0.0 W/m2 CLR
21:03 -17.8 °C -18.2 °C 34760.7 hPa Calm     94 % 0 mm 0.0 W/m2 CLR
21:04 -17.8 °C -18.2 °C 34760.7 hPa Calm     94 % 0 mm 0.0 W/m2 CLR
21:08 -17.8 °C -18.2 °C 34760.7 hPa Calm     94 % 0 mm 0.0 W/m2 CLR
21:09 -17.8 °C -18.2 °C 34750.5 hPa Calm     94 % 0 mm 0.0 W/m2 CLR
21:14 -17.8 °C -18.2 °C 34750.5 hPa Calm     94 % 0 mm 0.0 W/m2 CLR
21:15 -18.1 °C -18.6 °C 34750.5 hPa Calm     94 % 0 mm 0.0 W/m2 CLR
21:20 -18.1 °C -18.6 °C 34750.5 hPa Calm     94 % 0 mm 0.0 W/m2 CLR
21:21 -18.1 °C -18.6 °C 34740.4 hPa Calm     94 % 0 mm 0.0 W/m2 CLR
21:22 -18.1 °C -18.6 °C 34740.4 hPa Calm     94 % 0 mm 0.0 W/m2 CLR
21:26 -18.1 °C -18.6 °C 34740.4 hPa Calm     94 % 0 mm 0.0 W/m2 CLR
21:28 -18.1 °C -18.6 °C 34726.8 hPa Calm     94 % 0 mm 0.0 W/m2 CLR
21:33 -18.1 °C -18.6 °C 34740.4 hPa Calm     94 % 0 mm 0.0 W/m2 CLR
21:38 -18.1 °C -18.6 °C 34726.8 hPa Calm     94 % 0 mm 0.0 W/m2 CLR
21:40 -18.4 °C -18.8 °C 34726.8 hPa Calm     94 % 0 mm 0.0 W/m2 CLR
21:43 -18.4 °C -18.8 °C 34726.8 hPa Calm     94 % 0 mm 0.0 W/m2 CLR
21:45 -18.4 °C -18.8 °C 34726.8 hPa Calm     94 % 0 mm 0.0 W/m2 CLR
21:50 -18.4 °C -18.8 °C 34726.8 hPa Calm     94 % 0 mm 0.0 W/m2 CLR
21:52 -18.4 °C -18.8 °C 34726.8 hPa Calm     94 % 0 mm 0.0 W/m2 CLR
21:57 -18.4 °C -18.8 °C 34726.8 hPa Calm     94 % 0 mm 0.0 W/m2 CLR
21:58 -18.4 °C -18.8 °C 34726.8 hPa Calm     94 % 0 mm 0.0 W/m2 CLR
22:03 -18.7 °C -19.2 °C 34726.8 hPa Calm     94 % 0 mm 0.0 W/m2 CLR
22:05 -18.7 °C -19.2 °C 34726.8 hPa Calm     94 % 0 mm 0.0 W/m2 CLR
22:10 -18.4 °C -18.8 °C 34726.8 hPa Calm     94 % 0 mm 0.0 W/m2 CLR
22:13 -18.7 °C -19.2 °C 34716.7 hPa Calm     94 % 0 mm 0.0 W/m2 CLR
22:15 -18.7 °C -19.2 °C 34726.8 hPa Calm     94 % 0 mm 0.0 W/m2 CLR
22:20 -18.7 °C -19.2 °C 34716.7 hPa Calm     94 % 0 mm 0.0 W/m2 CLR
22:21 -18.7 °C -19.2 °C 34716.7 hPa Calm     94 % 0 mm 0.0 W/m2 CLR
22:26 -18.7 °C -19.2 °C 34716.7 hPa Calm     94 % 0 mm 0.0 W/m2 CLR
22:31 -18.7 °C -19.2 °C 34716.7 hPa Calm     94 % 0 mm 0.0 W/m2 CLR
22:33 -18.7 °C -19.2 °C 34726.8 hPa Calm     94 % 0 mm 0.0 W/m2 CLR
22:38 -18.7 °C -19.2 °C 34716.7 hPa Calm     94 % 0 mm 0.0 W/m2 CLR
22:39 -18.7 °C -19.2 °C 34716.7 hPa Calm     94 % 0 mm 0.0 W/m2 CLR
22:44 -18.7 °C -19.2 °C 34716.7 hPa Calm     94 % 0 mm 0.0 W/m2 CLR
22:49 -18.7 °C -19.2 °C 34703.1 hPa Calm     94 % 0 mm 0.0 W/m2 CLR
22:53 -18.7 °C -19.2 °C 34703.1 hPa Calm     94 % 0 mm 0.0 W/m2 CLR
22:56 -18.7 °C -19.2 °C 34703.1 hPa Calm     94 % 0 mm 0.0 W/m2 CLR
22:59 -18.7 °C -19.2 °C 34703.1 hPa Calm     94 % 0 mm 0.0 W/m2 CLR
23:03 -19 °C -19.5 °C 34703.1 hPa Calm     94 % 0 mm 0.0 W/m2 CLR
23:08 -19 °C -19.5 °C 34716.7 hPa Calm     94 % 0 mm 0.0 W/m2 CLR
23:10 -19 °C -19.5 °C 34716.7 hPa Calm     94 % 0 mm 0.0 W/m2 CLR
23:15 -19 °C -19.5 °C 34716.7 hPa Calm     94 % 0 mm 0.0 W/m2 CLR
23:16 -19 °C -19.5 °C 34716.7 hPa Calm     94 % 0 mm 0.0 W/m2 CLR
23:21 -19 °C -19.5 °C 34716.7 hPa Calm     94 % 0 mm 0.0 W/m2 CLR
23:26 -19 °C -19.5 °C 34703.1 hPa Calm     94 % 0 mm 0.0 W/m2 CLR
23:27 -19 °C -19.5 °C 34716.7 hPa Calm     94 % 0 mm 0.0 W/m2 CLR
23:32 -19 °C -19.5 °C 34716.7 hPa Calm     94 % 0 mm 0.0 W/m2 CLR
23:37 -19 °C -19.5 °C 34716.7 hPa Calm     94 % 0 mm 0.0 W/m2 CLR
23:38 -19 °C -19.5 °C 34703.1 hPa Calm     94 % 0 mm 0.0 W/m2 CLR
23:43 -19 °C -19.5 °C 34703.1 hPa Calm     94 % 0 mm 0.0 W/m2 CLR
23:44 -19 °C -19.5 °C 34703.1 hPa Calm     94 % 0 mm 0.0 W/m2 CLR
23:46 -19 °C -19.5 °C 34703.1 hPa Calm     94 % 0 mm 0.0 W/m2 CLR
23:49 -19 °C -19.5 °C 34703.1 hPa Calm     94 % 0 mm 0.0 W/m2 CLR
23:54 -19 °C -19.5 °C 34703.1 hPa Calm     94 % 0 mm 0.0 W/m2 CLR
23:55 -19 °C -19.5 °C 34703.1 hPa Calm     94 % 0 mm 0.0 W/m2 CLR
Lo Temps de Massalio
Compliments of Weather Underground - 1.75 mb